Вернуться в каталог

STARLINK-11521

АктивенСвязьVLEO
NORAD 62597·PAYLOAD·🇺🇸 United States

Запущен Jan 13, 2025 с Cape Canaveral Space Force Station

Loading…

Ближайшие Пролёты (ближайшие 24 часа)

TLE

СвежийSource: CelesTrak SupGP

Эпоха: Sep 14, 2026, 20:42 UTC

1 62597C 25008L   26257.86298611 -.00000131  00000+0 -10142-5 0  2573
2 62597  43.0011  65.7206 0001884 276.5188 246.8226 15.70835000    14

Отслеживайте STARLINK-11521 в реальном времени с AllMySat

Download on the App Store